Wind_Speed
11 12 12 12 12 11 12 13 14 15 14 13 13 14 13 14 16 16 17 18 19 21 21 22 22 23 24 24 25 26 27 28 28 29 29 29 29 29 28 28 28 28 28
8 8 8 9 10 10 11 12 13 12 13 14 14 14 15 16 17 18 19 20 21 22 22 23 24 25 25 26 27 28 28 29 29 29 30 30 30 31 30 30 29 29 30
5 5 4 5 7 8 9 9 10 11 12 13 14 15 17 18 19 19 20 21 22 22 23 24 25 26 26 26 27 28 29 30 30 31 31 31 31 31 31 31 31 31 31
3 3 4 6 7 7 8 9 10 12 13 14 15 17 18 19 20 21 21 22 22 23 23 24 25 26 26 27 27 28 29 29 30 31 31 31 31 32 32 33 33 32 33
2 3 4 5 6 7 8 10 12 13 14 15 17 18 20 20 21 21 21 22 23 23 24 24 25 26 27 27 28 28 29 29 29 30 31 31 32 33 33 34 35 34 34
3 4 4 6 7 8 9 11 13 14 16 17 18 19 20 21 21 22 22 23 24 24 24 25 26 27 27 28 28 29 29 29 29 30 30 31 32 32 33 33 34 35 35
4 4 5 7 8 10 11 13 14 15 17 18 19 20 20 21 21 22 23 24 25 26 26 26 27 28 29 29 30 30 30 30 30 30 30 31 32 33 33 34 34 34 35
5 6 7 9 10 11 13 14 15 17 18 19 19 20 21 21 22 22 23 24 25 27 28 29 29 30 30 31 31 31 31 31 31 32 32 32 32 33 33 34 34 34 35
7 8 9 10 11 12 14 15 16 17 19 19 19 20 21 22 23 24 25 26 27 29 29 30 31 31 32 32 32 33 33 33 33 34 34 34 34 34 34 34 35 35 35
9 10 11 12 13 13 15 16 17 18 19 19 20 20 20 21 23 25 27 28 29 31 31 32 32 33 33 33 34 34 35 35 35 35 36 36 36 36 36 36 36 36 37
10 11 11 12 13 14 15 16 18 18 19 19 20 21 21 23 25 27 28 29 31 32 33 34 34 34 35 35 36 36 36 36 36 37 37 37 38 38 38 38 38 38 38
12 12 12 13 14 15 16 17 18 19 19 19 20 21 23 25 27 28 30 31 32 34 35 35 35 36 36 36 37 37 37 37 37 38 38 38 39 39 39 39 39 39 39
14 14 14 14 15 15 16 17 18 19 20 20 21 22 25 27 28 30 32 34 35 36 37 37 37 38 38 38 37 37 37 37 37 38 38 38 38 38 39 39 39 39 39
14 15 15 15 16 16 17 18 19 20 21 21 22 24 26 28 30 33 35 36 37 38 39 39 39 39 39 39 38 37 37 36 36 37 37 37 37 38 38 38 38 39 39
15 16 16 16 17 18 18 19 20 21 22 23 24 25 27 30 32 34 36 37 38 39 40 41 41 41 40 39 38 37 36 36 36 36 36 36 36 37 37 37 38 38 38
17 17 17 17 18 19 20 20 21 23 24 24 25 27 29 31 33 35 37 39 40 41 42 42 42 41 40 38 37 36 35 35 35 35 35 35 35 36 36 37 38 39 39
18 18 18 18 19 20 21 22 23 24 25 26 27 29 31 33 35 37 39 40 42 43 43 43 43 41 40 38 37 36 35 35 35 35 35 35 35 35 35 36 37 38 39
19 19 19 20 21 22 23 24 24 25 26 27 29 30 33 35 37 39 41 42 43 45 45 44 43 41 40 38 37 36 35 35 35 34 34 34 34 34 35 35 36 37 38
20 20 21 21 22 23 24 25 26 27 28 29 31 32 34 37 39 40 42 44 45 45 46 44 43 41 39 38 37 36 36 35 34 34 33 33 33 34 35 35 35 36 37
22 22 23 23 24 25 26 27 28 29 31 32 33 34 37 39 41 43 44 46 46 46 45 44 43 40 39 38 37 36 36 35 34 33 33 33 33 33 34 34 35 35 37
24 24 25 25 26 27 28 29 30 32 33 35 35 37 39 41 42 44 46 47 47 46 46 44 42 40 39 38 37 37 36 35 34 33 33 33 33 32 32 33 33 34 35
25 26 26 27 27 28 29 31 32 34 35 37 37 38 40 42 44 45 47 47 47 46 45 43 41 40 38 37 36 36 36 35 34 33 32 31 31 30 30 31 31 32 33
27 27 28 28 29 30 31 32 34 36 37 38 39 40 41 43 45 46 47 48 48 47 45 43 41 40 39 37 36 35 35 34 33 32 31 30 29 28 27 28 28 28 29
28 29 30 31 31 32 34 35 37 38 39 40 41 42 44 45 45 46 48 48 48 46 44 42 41 40 39 38 37 35 34 33 32 31 30 29 27 26 26 26 26 26 26
31 31 32 33 33 35 36 38 39 40 41 42 44 45 45 45 45 47 48 48 47 45 44 42 41 40 39 38 36 35 33 32 31 29 28 26 26 25 24 24 23 22 22
33 34 34 35 36 37 39 39 40 42 44 45 46 46 46 46 47 48 48 47 46 44 43 41 40 39 38 36 34 33 32 31 29 28 27 26 25 24 23 22 21 20 20
Wind_Direction
271 279 282 287 288 292 294 295 299 302 305 307 309 308 309 308 308 306 304 303 301 298 297 295 291 288 287 287 285 283 281 278 276 275 273 272 270 267 265 263 260 259 258
282 295 296 294 292 296 297 298 299 306 308 308 311 311 312 313 313 314 312 307 304 302 300 297 294 292 291 290 288 286 283 281 278 276 273 271 269 267 265 263 260 258 257
308 305 304 308 310 311 310 312 310 313 314 316 317 317 318 317 316 315 314 312 310 306 304 301 297 294 292 290 288 286 284 282 280 278 275 271 269 266 264 262 259 257 256
327 327 321 316 313 314 317 318 319 321 322 323 322 320 320 318 317 316 316 314 312 309 307 304 301 298 295 293 290 288 285 283 281 279 277 274 270 267 265 263 259 257 256
335 338 332 327 323 324 328 327 326 324 324 325 324 322 321 320 319 318 318 316 314 312 310 307 304 301 299 296 293 290 287 285 282 280 278 276 273 270 267 265 263 259 256
332 329 329 325 325 326 327 327 327 326 327 326 325 324 323 323 322 321 320 318 316 314 312 310 307 304 301 299 297 294 291 289 286 282 279 277 275 272 269 266 264 261 258
341 340 335 330 327 326 326 328 328 328 329 328 327 326 326 325 323 321 320 319 318 317 315 313 310 307 304 301 299 296 293 291 288 285 283 280 278 274 270 267 264 262 259
334 330 327 327 329 330 330 332 332 332 331 330 329 329 327 326 325 324 323 321 319 318 316 313 311 309 306 303 301 298 294 292 289 286 284 282 280 277 273 268 265 261 259
327 325 327 329 331 333 334 334 333 332 331 331 330 330 330 329 328 326 325 323 321 320 317 314 311 309 306 303 301 298 295 292 289 286 283 281 279 277 274 271 267 263 259
327 328 328 329 331 333 332 332 331 331 331 331 330 329 329 329 328 327 326 324 322 320 318 316 313 310 307 304 301 298 295 292 289 286 283 280 278 276 273 271 268 265 261
325 327 327 327 328 330 330 330 330 331 331 330 328 328 328 328 327 327 325 323 322 321 319 317 314 311 308 305 302 299 296 292 289 286 283 280 278 275 273 271 268 265 262
320 321 322 324 325 326 327 328 329 329 329 329 328 327 327 326 326 326 325 325 323 322 321 318 316 313 311 307 304 301 298 294 290 286 283 280 278 275 273 271 268 266 263
313 316 318 320 322 323 325 326 327 328 329 327 326 326 326 327 326 326 326 325 324 323 322 320 318 316 313 310 307 303 300 296 292 288 284 281 278 276 273 271 268 266 263
306 310 313 315 318 320 322 323 325 326 326 326 325 326 327 327 327 327 326 326 325 324 323 321 319 318 315 312 309 305 302 299 294 290 286 282 279 276 274 271 268 266 263
301 305 308 310 313 316 319 321 322 323 323 324 324 324 325 327 327 328 328 327 326 325 324 323 321 319 316 314 310 307 304 301 297 293 288 284 280 277 274 272 268 266 263
300 302 305 307 309 312 315 317 318 320 320 321 321 323 324 326 327 328 328 328 327 326 325 324 322 320 317 314 311 309 306 302 298 294 290 286 282 279 276 273 269 266 264
297 301 303 305 308 310 312 314 316 317 318 318 319 320 322 325 326 327 327 328 328 327 325 324 323 320 318 315 313 311 308 304 300 296 292 288 284 280 278 274 271 268 264
295 298 300 303 306 308 310 311 313 315 316 316 317 318 321 324 326 327 327 327 327 327 326 325 323 321 319 316 314 312 310 307 302 298 294 290 286 283 280 277 272 269 265
295 297 298 301 304 307 308 310 312 314 315 315 316 317 320 323 326 327 327 328 327 327 327 325 324 322 319 317 316 314 311 308 305 301 297 293 289 285 282 278 274 269 265
296 296 297 299 302 305 307 309 310 312 315 316 316 317 319 322 324 326 327 327 327 327 327 326 324 322 319 318 317 315 313 310 307 304 300 296 292 288 283 280 275 270 266
296 296 296 297 300 303 305 306 308 311 314 315 315 316 319 320 322 324 326 327 327 327 327 326 324 321 319 318 318 316 314 312 309 306 302 299 295 290 285 281 277 272 267
294 294 295 296 299 302 304 306 308 310 312 313 314 316 318 319 321 323 325 326 326 326 326 325 323 321 320 319 318 317 315 314 312 309 305 302 298 294 289 284 279 274 269
293 294 294 296 298 300 303 306 308 310 311 313 314 315 317 318 320 322 323 324 325 325 325 324 323 322 320 319 319 318 317 316 314 312 309 305 302 298 294 290 284 277 272
292 293 295 297 299 301 302 304 307 308 310 312 313 314 315 316 318 320 322 324 324 324 324 324 323 322 321 320 319 319 318 317 316 314 311 308 305 301 299 295 288 281 274
292 293 294 296 298 301 302 303 305 307 309 311 312 312 314 315 316 319 322 323 324 323 323 323 322 321 320 320 319 319 319 318 318 317 315 311 307 305 302 298 293 285 275
290 292 294 296 298 300 302 303 304 308 309 309 309 311 313 314 316 318 321 322 322 322 322 322 322 321 320 319 318 319 318 318 318 318 317 314 311 308 304 301 297 288 278
Height
5857 5858 5859 5860 5862 5862 5862 5863 5863 5862 5861 5861 5860 5859 5859 5858 5856 5855 5854 5853 5851 5850 5849 5848 5848 5847 5846 5846 5845 5844 5843 5843 5844 5844 5844 5845 5845 5846 5847 5848 5849 5850 5851
5856 5856 5858 5859 5860 5860 5860 5861 5861 5860 5860 5859 5858 5857 5856 5855 5853 5852 5850 5849 5847 5846 5844 5843 5842 5841 5840 5839 5838 5837 5837 5836 5836 5837 5837 5838 5839 5838 5839 5841 5841 5843 5844
5856 5857 5858 5859 5859 5859 5859 5859 5859 5859 5858 5857 5856 5854 5853 5851 5850 5849 5847 5845 5843 5841 5840 5839 5837 5835 5834 5833 5832 5831 5830 5829 5829 5828 5829 5830 5830 5831 5832 5832 5833 5835 5836
5857 5857 5858 5858 5858 5859 5859 5858 5858 5857 5856 5855 5853 5852 5850 5849 5847 5845 5843 5841 5839 5837 5835 5833 5832 5830 5828 5827 5825 5824 5823 5822 5821 5820 5820 5821 5822 5822 5823 5824 5825 5826 5828
5857 5857 5858 5858 5858 5858 5858 5857 5856 5856 5854 5853 5851 5849 5847 5845 5843 5841 5839 5837 5835 5832 5831 5829 5826 5824 5822 5820 5818 5817 5815 5814 5813 5813 5812 5812 5813 5813 5814 5815 5816 5817 5819
5857 5858 5858 5858 5858 5857 5857 5856 5855 5854 5852 5850 5848 5846 5844 5842 5839 5837 5835 5832 5830 5828 5826 5824 5821 5818 5816 5814 5812 5810 5808 5807 5805 5804 5804 5804 5804 5804 5805 5806 5807 5808 5810
5857 5858 5858 5857 5857 5856 5855 5854 5853 5851 5849 5847 5845 5843 5841 5838 5836 5834 5831 5829 5826 5823 5820 5818 5815 5812 5810 5807 5805 5803 5801 5799 5797 5796 5795 5795 5794 5794 5795 5796 5798 5799 5801
5857 5857 5857 5856 5855 5854 5853 5851 5850 5848 5846 5844 5842 5840 5838 5835 5833 5830 5827 5824 5821 5818 5815 5812 5809 5806 5803 5800 5797 5795 5793 5791 5789 5788 5786 5786 5785 5785 5785 5786 5787 5789 5791
5857 5856 5855 5854 5853 5852 5850 5849 5847 5846 5844 5841 5839 5837 5835 5832 5829 5826 5823 5820 5817 5813 5810 5806 5803 5799 5796 5793 5790 5787 5784 5782 5780 5779 5777 5776 5776 5775 5775 5775 5777 5779 5781
5855 5854 5854 5852 5851 5850 5848 5847 5845 5843 5841 5839 5836 5834 5832 5829 5826 5823 5820 5816 5812 5808 5804 5800 5796 5792 5789 5785 5782 5779 5776 5773 5771 5769 5767 5766 5765 5765 5765 5765 5766 5767 5769
5854 5853 5852 5851 5849 5848 5846 5845 5843 5841 5838 5836 5834 5831 5829 5826 5823 5819 5816 5811 5807 5802 5798 5793 5789 5785 5780 5776 5773 5769 5766 5763 5761 5758 5757 5755 5754 5754 5754 5754 5755 5756 5757
5852 5851 5850 5849 5848 5846 5844 5842 5840 5838 5836 5833 5831 5828 5825 5822 5819 5815 5810 5806 5801 5796 5791 5786 5781 5776 5772 5767 5763 5759 5755 5752 5750 5747 5745 5744 5743 5742 5742 5742 5743 5744 5745
5850 5849 5848 5847 5845 5843 5842 5840 5837 5835 5833 5830 5827 5825 5821 5818 5814 5809 5805 5800 5794 5789 5784 5778 5773 5768 5763 5758 5753 5749 5745 5741 5738 5736 5734 5732 5731 5730 5730 5729 5730 5731 5733
5849 5847 5846 5844 5843 5841 5839 5837 5834 5832 5829 5827 5824 5820 5817 5813 5809 5804 5799 5793 5787 5782 5776 5770 5764 5759 5753 5748 5743 5738 5734 5731 5727 5724 5722 5720 5719 5718 5717 5717 5718 5718 5720
5846 5845 5843 5841 5840 5838 5836 5833 5831 5829 5826 5823 5819 5816 5812 5808 5803 5798 5792 5786 5780 5774 5768 5762 5756 5749 5743 5738 5733 5728 5724 5720 5717 5713 5711 5709 5707 5706 5705 5705 5706 5706 5708
5842 5841 5840 5838 5836 5834 5832 5830 5827 5825 5821 5818 5815 5811 5807 5802 5797 5792 5786 5780 5773 5767 5760 5753 5747 5740 5734 5728 5723 5718 5714 5710 5706 5703 5700 5697 5696 5695 5694 5693 5693 5694 5696
5838 5837 5836 5834 5832 5830 5828 5826 5823 5820 5817 5813 5809 5805 5801 5796 5791 5785 5779 5772 5766 5759 5752 5745 5738 5731 5724 5719 5714 5709 5704 5700 5696 5693 5689 5687 5684 5683 5682 5681 5681 5682 5683
5835 5833 5832 5830 5828 5826 5823 5821 5818 5815 5811 5808 5804 5799 5795 5790 5784 5778 5771 5765 5758 5750 5743 5736 5729 5722 5715 5710 5705 5699 5695 5690 5686 5682 5679 5676 5673 5671 5670 5669 5669 5669 5670
5830 5829 5827 5825 5823 5821 5818 5815 5812 5809 5805 5801 5797 5793 5788 5782 5777 5770 5764 5757 5749 5742 5734 5727 5720 5713 5707 5701 5695 5690 5685 5681 5676 5672 5668 5665 5663 5661 5658 5657 5657 5657 5657
5825 5823 5822 5820 5818 5815 5812 5809 5806 5803 5799 5795 5790 5785 5780 5775 5769 5762 5755 5748 5741 5733 5726 5718 5711 5705 5698 5692 5687 5681 5676 5671 5667 5663 5659 5655 5652 5650 5647 5645 5644 5644 5644
5819 5818 5816 5814 5812 5809 5806 5803 5800 5796 5792 5788 5783 5778 5773 5767 5761 5754 5747 5740 5732 5725 5717 5710 5703 5696 5690 5684 5678 5672 5667 5662 5657 5653 5649 5645 5642 5638 5636 5634 5632 5631 5631
5813 5812 5810 5807 5805 5803 5800 5796 5793 5789 5785 5780 5775 5770 5765 5758 5752 5746 5738 5731 5724 5716 5709 5702 5695 5688 5682 5676 5670 5664 5659 5653 5648 5644 5639 5635 5632 5628 5625 5622 5620 5619 5619
5807 5805 5803 5800 5798 5795 5792 5789 5785 5781 5777 5772 5767 5762 5756 5750 5743 5737 5730 5722 5715 5708 5700 5693 5687 5680 5674 5668 5662 5656 5651 5645 5640 5635 5630 5626 5622 5619 5615 5613 5610 5608 5608
5799 5797 5795 5792 5790 5787 5784 5781 5777 5773 5768 5763 5758 5753 5747 5741 5735 5728 5721 5713 5706 5699 5691 5685 5678 5672 5666 5660 5654 5648 5643 5638 5633 5627 5622 5618 5614 5610 5607 5604 5601 5599 5598
5791 5789 5786 5784 5781 5779 5775 5771 5768 5763 5759 5754 5749 5743 5738 5732 5726 5719 5712 5705 5697 5690 5683 5677 5670 5664 5658 5652 5646 5641 5635 5630 5625 5620 5615 5611 5607 5603 5600 5596 5593 5591 5590
5782 5780 5778 5775 5772 5769 5766 5762 5758 5754 5749 5744 5738 5733 5727 5722 5716 5709 5703 5695 5689 5682 5675 5668 5662 5656 5650 5644 5639 5634 5628 5623 5618 5614 5609 5604 5600 5596 5593 5590 5587 5585 5584